Location: Kellogg
(38.0159°N, 90.0546°W)
Time: 00:42:25
(UTC+00:00)

Transit 2A - Pass Details

Date: 14 September 2024
Orbit: 590 x 960 km, 66.7° (Epoch: 09 October)

Event Time Altitude Azimuth Distance (km) Brightness Sun altitude
Rises 10:32:19 0° 325° (NW) 3,613 9.3 -14.2°
Reaches altitude 10° 10:35:02 10° 319° (NW) 2,635 8.5 -13.7°
Maximum altitude 10:40:49 44° 250° (WSW) 1,203 6.6 -12.6°
Drops below altitude 10° 10:46:08 10° 180° (S) 2,419 8.5 -11.6°
Sets 10:48:33 0° 173° (S) 3,290 9.2 -11.2°
